EW0482 Weather Reports


Display with metric or nautical units.
time (UTC)temp
F
wind
direction
speed
MPH
gust
MPH
rain 1hr
in
rain 24hr
in
rain mn
in
humidity
%
barometer
mb
20260505121522 56 252 0.0 1.0 0.00 0.00 0.00 58 1002.4
20260505120026 56 250 0.0 1.0 0.00 0.00 0.00 61 1002.3
20260505114519 57 252 0.0 3.0 0.00 0.00 0.00 65 1002.4
20260505113031 57 248 0.0 1.0 0.00 0.00 0.00 68 1002.4
20260505111535 57 247 0.0 3.0 0.00 0.00 0.00 70 1002.4
20260505101523 58 252 0.0 3.0 0.00 0.00 0.00 72 1002.5
20260505100015 58 257 0.0 1.0 0.00 0.00 0.00 73 1002.6
20260505094508 58 257 0.0 0.0 0.00 0.00 0.00 70 1002.6
20260505093007 58 257 0.0 0.0 0.00 0.00 0.00 68 1002.7
20260505091505 58 256 0.0 0.0 0.00 0.00 0.00 66 1003.0
20260505090005 58 256 0.0 0.0 0.00 0.00 0.00 64 1003.1
20260505084503 58 255 0.0 0.0 0.00 0.00 0.00 61 1003.2
20260505083108 58 255 0.0 0.0 0.00 0.00 0.00 59 1003.2
20260505081559 58 255 0.0 0.0 0.00 0.00 0.00 60 1003.4
20260505080058 58 256 0.0 1.0 0.00 0.00 0.00 59 1003.4
20260505074556 58 254 0.0 1.0 0.00 0.00 0.00 60 1003.6
20260505073056 58 254 0.0 1.0 0.00 0.00 0.00 62 1003.7
20260505071558 58 252 0.0 2.0 0.00 0.00 0.00 63 1003.7
20260505064555 59 255 0.0 1.0 0.00 0.00 0.00 63 1003.7
20260505063050 59 252 0.0 2.0 0.00 0.00 0.00 64 1003.8
20260505061611 59 248 0.0 2.0 0.00 0.00 0.00 64 1003.8
20260505060055 59 254 0.0 2.0 0.00 0.00 0.00 64 1003.9
20260505054554 58 252 0.0 1.0 0.00 0.00 0.00 66 1004.0
20260505053048 59 251 0.0 1.0 0.00 0.00 0.00 68 1004.0
20260505051548 59 251 0.0 1.0 0.00 0.00 0.00 71 1004.0
20260505041550 60 261 0.0 1.0 0.00 0.00 0.00 75 1004.2
20260505040058 60 259 0.0 5.0 0.00 0.00 0.00 75 1004.1
20260505034545 60 251 0.0 4.0 0.00 0.00 0.00 75 1004.0
20260505033044 60 249 0.0 1.0 0.00 0.00 0.00 75 1003.9
20260505031550 60 285 0.0 3.0 0.00 0.00 0.00 74 1003.8
20260505030044 60 243 0.0 4.0 0.00 0.00 0.00 73 1003.7
20260505024542 60 242 0.0 3.0 0.00 0.00 0.00 74 1003.7
20260505023042 61 248 0.0 3.0 0.00 0.00 0.00 75 1003.6
20260505021542 61 214 0.0 8.0 0.00 0.00 0.00 75 1003.5
20260505020042 61 246 0.0 4.0 0.00 0.00 0.00 74 1003.4
20260505014542 62 221 0.0 6.0 0.00 0.00 0.00 74 1003.5
20260505013039 62 236 0.0 6.0 0.00 0.00 0.00 72 1003.6
20260505011541 62 247 0.0 7.0 0.00 0.00 0.00 70 1003.7
20260505010048 63 234 0.0 8.0 0.00 0.00 0.00 70 1003.7
20260505004536 63 231 0.0 7.0 0.00 0.00 0.00 72 1003.8
20260505003036 63 174 0.0 9.0 0.00 0.00 0.00 71 1003.9
20260505001536 64 235 0.0 6.0 0.00 0.00 0.00 69 1003.8
20260505000047 64 189 1.0 10.0 0.00 0.00 0.00 69 1003.8
20260504234536 64 272 1.0 10.0 0.00 0.00 0.00 69 1003.6
20260504233035 66 242 2.0 12.0 0.00 0.00 0.00 66 1003.6
20260504231533 66 225 2.0 9.0 0.00 0.00 0.00 66 1003.6
20260504230033 67 202 1.0 12.0 0.00 0.00 0.00 66 1003.7
20260504224536 66 238 3.0 12.0 0.00 0.00 0.00 66 1003.9
20260504223031 65 238 2.0 13.0 0.00 0.00 0.00 67 1004.1
20260504221531 66 258 3.0 13.0 0.00 0.00 0.00 69 1004.2
20260504220043 65 217 0.0 8.0 0.00 0.00 0.00 69 1004.4
20260504214533 66 204 1.0 9.0 0.00 0.00 0.00 70 1004.6
20260504213035 65 173 0.0 8.0 0.00 0.00 0.00 70 1004.7
20260504211536 66 197 0.0 8.0 0.00 0.00 0.00 68 1004.8
20260504210027 66 244 1.0 7.0 0.00 0.00 0.00 66 1004.7
20260504204536 67 236 1.0 8.0 0.00 0.00 0.00 63 1004.7
20260504203026 67 227 0.0 8.0 0.00 0.00 0.00 61 1004.6
20260504201527 67 168 0.0 6.0 0.00 0.00 0.00 60 1004.6
20260504200025 68 254 1.0 7.0 0.00 0.00 0.00 58 1004.8
20260504194524 68 253 2.0 9.0 0.00 0.00 0.00 59 1004.8
20260504193022 67 249 0.0 8.0 0.00 0.00 0.00 61 1004.8
20260504191525 66 221 0.0 5.0 0.00 0.00 0.00 62 1004.8
20260504190026 67 178 0.0 8.0 0.00 0.00 0.00 63 1004.9
20260504184519 67 167 0.0 9.0 0.00 0.00 0.00 63 1005.0
20260504183018 67 229 0.0 6.0 0.00 0.00 0.00 64 1004.9
20260504181519 66 251 0.0 8.0 0.00 0.00 0.00 63 1005.0
20260504180016 65 263 3.0 9.0 0.00 0.00 0.00 62 1005.0
20260504174519 64 248 3.0 9.0 0.00 0.00 0.00 65 1005.0
20260504173016 65 235 3.0 8.0 0.00 0.00 0.00 65 1004.8
20260504171514 66 251 0.0 5.0 0.00 0.00 0.00 64 1004.7